Weather History for Mount Pleasant, MI

Change the Weather History Date:

Monday, March 18, 2013

  Actual Average (KAMN) Record (KAMN)
Temperature  
Mean Temperature 25 °F -  
Max Temperature 32 °F 41 °F 71 °F (2012)
Min Temperature 18 °F 22 °F 0 °F (1959)
Degree Days  
Heating Degree Days 40    
Moisture  
Dew Point 22 °F    
Average Humidity 83    
Maximum Humidity 96    
Minimum Humidity 66    
Precipitation  
Precipitation 0.05 in - - ()
Sea Level Pressure  
Sea Level Pressure 29.81 in    
Wind  
Wind Speed 7 mph (East)    
Max Wind Speed 16 mph    
Max Gust Speed 21 mph    
Visibility 6 miles    
Events Snow    
Averages and records for this station are not official NWS values.
T = Trace of Precipitation, MM = Missing Value Source: NWS Daily Summary

Daily Weather History Graph

Daily Weather History Graph

Search for Another Location

Airport:

Trip Planner

Search our weather history database for the weather conditions in past years. The results will help you decide how hot, cold, wet, or windy it might be!

Date:

Astronomy

Mar. 18, 2013 Rise Set
Actual Time 7:45 AM EDT 7:49 PM EDT
Civil Twilight 7:16 AM EDT 8:17 PM EDT
Nautical Twilight 6:43 AM EDT 8:51 PM EDT
Astronomical Twilight 6:09 AM EDT 9:25 PM EDT
Moon 11:33 AM EDT (3/18) 1:58 AM EDT (3/18)
Length of Visible Light 13h 01m
Length of Day
12h 03m
Waxing Crescent, 40% of the Moon is Illuminated
Mar 18
Waxing Crescent
Mar 19
First Quarter
Mar 27
Full
Apr 3
Last Quarter
Apr 10
New

Hourly Weather History & Observations

Time (EDT) Temp. Windchill Dew Point Humidity Pressure Visibility Wind Dir Wind Speed Gust Speed Precip Events Conditions
12:14 AM 19.4 °F 11.5 °F 13.8 °F 79% 30.18 in 10.0 mi East 5.8 mph - N/A   Clear
12:35 AM 19.2 °F 11.3 °F 14.0 °F 80% 30.18 in 10.0 mi East 5.8 mph - N/A   Clear
12:54 AM 19.4 °F 10.4 °F 13.6 °F 78% 30.17 in 10.0 mi East 6.9 mph - N/A   Clear
1:14 AM 19.4 °F 8.6 °F 13.5 °F 78% 30.16 in 10.0 mi East 9.2 mph - N/A   Clear
1:35 AM 19.4 °F 10.4 °F 13.3 °F 77% 30.16 in 10.0 mi East 6.9 mph - N/A   Clear
1:54 AM 19.0 °F 12.3 °F 13.3 °F 78% 30.15 in 10.0 mi ENE 4.6 mph - N/A   Clear
2:15 AM 18.5 °F 10.4 °F 12.9 °F 79% 30.14 in 10.0 mi ENE 5.8 mph - N/A   Clear
2:35 AM 18.3 °F 10.2 °F 12.9 °F 79% 30.14 in 10.0 mi ENE 5.8 mph - N/A   Clear
2:54 AM 18.3 °F 9.1 °F 12.7 °F 79% 30.13 in 10.0 mi ENE 6.9 mph - N/A   Clear
3:15 AM 18.1 °F 11.3 °F 12.6 °F 79% 30.12 in 10.0 mi ENE 4.6 mph - N/A   Clear
3:35 AM 18.0 °F 9.8 °F 12.4 °F 79% 30.10 in 10.0 mi ENE 5.8 mph - N/A   Clear
3:54 AM 18.1 °F 10.0 °F 12.9 °F 80% 30.09 in 10.0 mi ENE 5.8 mph - N/A   Clear
4:15 AM 18.3 °F 9.1 °F 13.1 °F 80% 30.08 in 10.0 mi ENE 6.9 mph - N/A   Clear
4:35 AM 18.5 °F 9.3 °F 13.5 °F 81% 30.07 in 10.0 mi ENE 6.9 mph - N/A   Clear
4:54 AM 18.5 °F 8.4 °F 13.6 °F 81% 30.06 in 10.0 mi ENE 8.1 mph - N/A   Clear
5:15 AM 18.7 °F 9.5 °F 14.0 °F 82% 30.05 in 10.0 mi East 6.9 mph - N/A   Clear
5:35 AM 18.9 °F 10.8 °F 14.0 °F 81% 30.05 in 10.0 mi East 5.8 mph - N/A   Clear
5:54 AM 18.9 °F 12.1 °F 14.0 °F 81% 30.04 in 10.0 mi ENE 4.6 mph - N/A   Clear
6:15 AM 18.9 °F 9.8 °F 14.0 °F 81% 30.03 in 10.0 mi ENE 6.9 mph - N/A   Clear
6:35 AM 19.2 °F 11.3 °F 14.0 °F 80% 30.01 in 10.0 mi ENE 5.8 mph - N/A   Clear
6:54 AM 19.6 °F 9.7 °F 14.7 °F 81% 30.00 in 10.0 mi East 8.1 mph - N/A   Clear
7:15 AM 19.9 °F 11.1 °F 14.9 °F 81% 30.00 in 10.0 mi ENE 6.9 mph - N/A   Clear
7:35 AM 19.9 °F 12.1 °F 15.3 °F 82% 29.99 in 10.0 mi ENE 5.8 mph - N/A   Clear
7:54 AM 20.1 °F 12.3 °F 15.6 °F 83% 29.99 in 10.0 mi ENE 5.8 mph - N/A   Clear
8:15 AM 21.2 °F 11.7 °F 16.7 °F 83% 29.96 in 10.0 mi ENE 8.1 mph - N/A   Clear
8:54 AM 22.8 °F 11.5 °F 18.1 °F 82% 29.92 in 10.0 mi ENE 11.5 mph 19.6 mph N/A   Clear
9:15 AM 24.4 °F 14.2 °F 18.5 °F 78% 29.91 in 10.0 mi ENE 10.4 mph 17.3 mph N/A   Clear
9:35 AM 26.2 °F 15.8 °F 18.7 °F 73% 29.90 in 10.0 mi East 11.5 mph - N/A   Clear
9:54 AM 27.9 °F 16.8 °F 19.2 °F 70% 29.88 in 10.0 mi East 13.8 mph 19.6 mph N/A   Clear
10:15 AM 28.4 °F 17.5 °F 19.0 °F 68% 29.88 in 10.0 mi East 13.8 mph 18.4 mph N/A   Clear
10:35 AM 29.3 °F 19.6 °F 19.8 °F 68% 29.87 in 10.0 mi East 11.5 mph 19.6 mph N/A   Clear
10:54 AM 28.6 °F 17.2 °F 19.2 °F 68% 29.85 in 10.0 mi East 15.0 mph 20.7 mph N/A   Scattered Clouds
11:15 AM 29.8 °F 19.3 °F 20.1 °F 67% 29.83 in 10.0 mi East 13.8 mph - N/A   Overcast
11:35 AM 30.4 °F 21.0 °F 20.5 °F 67% 29.81 in 10.0 mi East 11.5 mph - N/A   Overcast
11:54 AM 31.3 °F 21.1 °F 21.0 °F 66% 29.79 in 10.0 mi East 13.8 mph 18.4 mph N/A   Overcast
12:15 PM 30.9 °F 19.8 °F 20.8 °F 66% 29.76 in 10.0 mi East 16.1 mph 19.6 mph N/A   Overcast
12:35 PM 31.1 °F 20.9 °F 21.4 °F 67% 29.77 in 10.0 mi East 13.8 mph - N/A   Overcast
12:54 PM 31.1 °F 21.4 °F 21.7 °F 68% 29.78 in 10.0 mi East 12.7 mph 19.6 mph N/A   Overcast
1:15 PM 31.1 °F 23.7 °F 22.1 °F 69% 29.76 in 5.0 mi East 8.1 mph 17.3 mph N/A   Haze
1:34 PM 30.9 °F 23.5 °F 24.4 °F 77% 29.74 in 2.0 mi ENE 8.1 mph - N/A Snow Light Snow
1:54 PM 30.7 °F 22.6 °F 25.7 °F 82% 29.72 in 1.8 mi East 9.2 mph - N/A Snow Light Snow
2:15 PM 30.7 °F 22.6 °F 26.6 °F 85% 29.70 in 1.5 mi East 9.2 mph - N/A Snow Light Snow
2:34 PM 30.9 °F 22.8 °F 27.1 °F 86% 29.69 in 1.5 mi East 9.2 mph - N/A Snow Light Snow
2:54 PM 30.9 °F 22.2 °F 27.7 °F 88% 29.66 in 1.2 mi East 10.4 mph - N/A Snow Light Snow
3:15 PM 30.9 °F 21.7 °F 28.0 °F 89% 29.64 in 1.0 mi East 11.5 mph 16.1 mph N/A Snow Light Snow
3:34 PM 30.9 °F 22.8 °F 28.2 °F 90% 29.63 in 1.5 mi East 9.2 mph - N/A Snow Light Snow
3:55 PM 30.9 °F 22.8 °F 28.2 °F 90% 29.61 in 2.0 mi ENE 9.2 mph - N/A Snow Light Snow
4:15 PM 31.1 °F 23.1 °F 28.4 °F 90% 29.61 in 1.2 mi East 9.2 mph - N/A Snow Light Snow
4:34 PM 31.1 °F 24.5 °F 28.8 °F 91% 29.61 in 1.2 mi East 6.9 mph - N/A Snow Light Snow
4:55 PM 31.1 °F 26.4 °F 28.9 °F 92% 29.61 in 1.0 mi East 4.6 mph - 0.01 in Snow Light Snow
5:15 PM 31.1 °F 24.5 °F 29.3 °F 93% 29.60 in 0.8 mi East 6.9 mph - 0.01 in Snow Light Snow
5:34 PM 31.1 °F 24.5 °F 29.5 °F 94% 29.58 in 0.8 mi East 6.9 mph - 0.01 in Snow Light Snow
5:55 PM 31.3 °F 26.6 °F 29.8 °F 94% 29.58 in 0.5 mi East 4.6 mph - 0.02 in Snow Snow
6:15 PM 31.3 °F - 30.0 °F 95% 29.57 in 0.8 mi Calm Calm - 0.01 in Snow Light Snow
6:34 PM 31.5 °F 26.8 °F 30.0 °F 94% 29.56 in 0.8 mi ENE 4.6 mph - 0.01 in Snow Light Snow
6:55 PM 31.5 °F - 30.0 °F 94% 29.56 in 0.8 mi Calm Calm - 0.01 in Snow Light Snow
7:15 PM 31.3 °F 27.9 °F 30.0 °F 95% 29.56 in 0.8 mi East 3.5 mph - N/A Snow Light Snow
7:34 PM 31.3 °F - 30.2 °F 96% 29.56 in 0.8 mi Calm Calm - N/A Snow Light Snow
7:55 PM 31.1 °F - 30.2 °F 96% 29.54 in 1.2 mi Calm Calm - 0.01 in Snow Light Snow
8:15 PM 31.1 °F - 30.0 °F 96% 29.55 in 1.5 mi Calm Calm - N/A Snow Light Snow
8:34 PM 31.1 °F - 30.0 °F 96% 29.54 in 1.5 mi Calm Calm - N/A Snow Light Snow
8:55 PM 31.1 °F - 30.0 °F 96% 29.53 in 1.5 mi Calm Calm - N/A Snow Light Snow
9:15 PM 31.1 °F - 30.2 °F 96% 29.54 in 2.0 mi Calm Calm - N/A Snow Light Snow
9:34 PM 31.1 °F - 30.2 °F 96% 29.53 in 3.0 mi Calm Calm - N/A   Overcast
9:55 PM 31.3 °F - 30.2 °F 96% 29.53 in 1.8 mi Calm Calm - N/A Snow Light Snow
10:14 PM 31.5 °F - 30.2 °F 95% 29.53 in 2.0 mi Calm Calm - N/A Snow Light Snow
10:34 PM 31.6 °F 28.3 °F 30.6 °F 96% 29.53 in 2.5 mi SSW 3.5 mph - N/A Snow Light Snow
10:55 PM 31.8 °F 26.2 °F 30.7 °F 96% 29.53 in 5.0 mi SSW 5.8 mph - N/A   Overcast
11:14 PM 32.0 °F 26.4 °F 30.7 °F 95% 29.53 in 7.0 mi SW 5.8 mph - N/A   Overcast
11:55 PM 32.9 °F 24.1 °F 30.9 °F 92% 29.53 in 10.0 mi WSW 11.5 mph 16.1 mph N/A   Overcast